[[{"header":{"parameterUnit":"m.s-1","parameterCategory":1,"la1":30.2991,"la2":30.254,"lo1":-89.0895,"lo2":-89.0444,"dy":0.0017,"dx":0.0017,"nx":28,"ny":28,"refTime":"2024-10-20T09:00:00:Z","depth":0,"parameterNumber":2,"parameterNumberName":"U-component_of_WINDS"},"data":[0,0,0,0,0,0,0,0,0,0,0,0,0,0,0,0,0,0,0,0,0,0,0,0,0,0,0,0,0,0,0,0,0,0,0,0,0,0,0,0,0,0,0,0,0,0,0,0,0,0,0,0,0,0,0,0,0,0,0.0065,0.0064,0,-0.0039,-0.004,-0.0041,-0.0079,-0.0079,-0.0079,-0.0078,-0.019,-0.0194,-0.0197,0,0,0,0,0,0,0,0,0,0,0,0,0,0.0227,0.0224,0.0066,0.0064,0.0063,-0.0039,-0.004,-0.0042,-0.0079,-0.0079,-0.0079,-0.0078,-0.0189,-0.0193,-0.0197,0,0,0,0,0,0,0,0,0,0,0,0,0,0.0143,0.0224,0.0066,0.0032,0.0028,-0.0038,-0.004,-0.0042,-0.008,-0.0079,-0.0078,-0.0078,-0.0188,-0.0193,-0.0198,-0.024,0,0,-0.0213,-0.0215,0,0,0,0,0,0,0,0,0.0148,0.0137,0.0038,0.0034,0.003,-0.0045,-0.0024,-0.0108,-0.008,-0.0039,-0.0078,-0.0078,-0.0143,-0.0152,-0.0173,-0.0245,-0.025,-0.0214,-0.0217,-0.0219,-0.022,0,0,0,0,0,0,0,0.0154,0.0142,0.0024,0.0037,0.0031,0.002,0.0009,-0.004,-0.0093,-0.0042,-0.0045,-0.0057,-0.0145,-0.0168,-0.0176,-0.0251,-0.0213,-0.0218,-0.0221,-0.0223,-0.0364,-0.0365,0,0,0,0,0,0,0.0166,0.0147,0.0027,0.0021,0.0092,0.0017,0.0004,-0.0022,-0.0092,-0.0103,-0.0057,-0.0058,-0.0159,-0.017,-0.018,-0.0234,-0.0219,-0.0223,-0.0226,-0.0364,-0.0365,-0.0365,0,0,0,0,0,0,0.017,0.0156,0.0032,0.0083,0.0066,0.0014,-0.0016,-0.0024,-0.0047,-0.0104,-0.0114,-0.007,-0.0159,-0.0173,-0.0224,-0.0239,-0.0226,-0.023,-0.0363,-0.0364,-0.0365,-0.0343,0,0,0,0,0,0,0.0175,0.0157,0.0142,0.0083,0.0064,-0.001,-0.0016,-0.0027,-0.0055,-0.0057,-0.0118,-0.0128,-0.016,-0.0217,-0.0229,-0.0245,-0.0234,-0.0362,-0.0363,-0.0365,-0.0343,-0.0344,-0.0344,0,0,0,0,0,0.018,0.0151,0.0141,0.0127,0.0044,-0.0011,-0.0022,-0.0056,-0.0056,-0.0072,-0.0109,-0.0126,-0.0234,-0.0222,-0.0236,-0.0254,-0.0361,-0.0363,-0.0365,-0.0343,-0.0343,-0.0344,0,0,0,0,0,0,0.0208,0.0143,0.0131,0.0082,0.0042,-0.0017,-0.0039,-0.0056,-0.0099,-0.0099,-0.0142,-0.0155,-0.0204,-0.0234,-0.0218,-0.0299,-0.0299,-0.0304,-0.0278,-0.0279,-0.0279,-0.0272,-0.0238,0,0,0,0,0,0.0209,0.0172,0.0116,0.0078,0.0059,0.0014,-0.0011,-0.0034,-0.0078,-0.0096,-0.0137,-0.0181,-0.0225,-0.0253,-0.0297,-0.0347,-0.0362,-0.0366,-0.0367,-0.0367,-0.0371,-0.0401,-0.0404,-0.0371,-0.0371,-0.0371,0,0,0.0209,0.0169,0.0148,0.0083,0.0049,0.001,-0.0001,-0.0041,-0.0072,-0.0103,-0.0155,-0.0185,-0.0237,-0.0288,-0.0313,-0.0315,-0.0383,-0.0369,-0.0369,-0.0373,-0.0403,-0.0406,-0.0409,-0.0372,-0.0372,-0.0372,0,0,0.0189,0.0156,0.0121,0.0087,0.0037,0.0007,-0.0001,-0.0058,-0.0079,-0.013,-0.0155,-0.0192,-0.0267,-0.0303,-0.0331,-0.0363,-0.0381,-0.0376,-0.038,-0.0409,-0.0411,-0.0414,-0.0427,-0.0431,-0.038,-0.038,-0.038,0,0.0195,0.0137,0.0104,0.0065,0.0036,0.0008,-0.0029,-0.006,-0.0124,-0.0143,-0.0144,-0.0238,-0.0275,-0.0336,-0.0343,-0.0364,-0.0377,-0.037,-0.0408,-0.0411,-0.0414,-0.0427,-0.0432,-0.0379,-0.0379,-0.0379,-0.0379,0,0.0146,0.0106,0.0084,0.0025,-0.0005,-0.0044,-0.0084,-0.0111,-0.0131,-0.0161,-0.0214,-0.0259,-0.0312,-0.0328,-0.0348,-0.0392,-0.0392,-0.0399,-0.0401,-0.0415,-0.0429,-0.0434,-0.0378,-0.0378,-0.0378,-0.0378,0,0,0.0139,0.0064,0.0056,0.0029,-0.0028,-0.0061,-0.01,-0.0151,-0.0174,-0.0216,-0.0252,-0.0314,-0.0321,-0.0353,-0.0378,-0.0403,-0.0427,-0.0408,-0.041,-0.0412,-0.048,-0.0476,-0.0481,-0.0439,-0.044,-0.044,-0.0477,0,0.011,0.0039,0.0009,-0.0049,-0.0087,-0.0113,-0.0148,-0.0188,-0.0217,-0.0255,-0.0288,-0.0332,-0.0337,-0.0356,-0.0382,-0.0419,-0.0442,-0.0416,-0.0475,-0.0477,-0.0463,-0.0487,-0.0483,-0.0515,-0.0482,-0.0483,-0.0483,0,0.0067,0.0026,-0.0035,-0.0087,-0.0105,-0.0135,-0.0184,-0.0219,-0.0265,-0.0285,-0.032,-0.0343,-0.0387,-0.0384,-0.0447,-0.0429,-0.0454,-0.0476,-0.0478,-0.0487,-0.0482,-0.0499,-0.0526,-0.0531,-0.0491,-0.0491,-0.049,0,0.0065,-0.0005,-0.005,-0.0072,-0.0135,-0.0156,-0.0183,-0.0228,-0.0257,-0.03,-0.0319,-0.0367,-0.0394,-0.0432,-0.0468,-0.0461,-0.0528,-0.0527,-0.0547,-0.0547,-0.0562,-0.0561,-0.0596,-0.0575,-0.0575,-0.0574,-0.0574,0,0.0035,-0.0002,-0.0052,-0.008,-0.0123,-0.0157,-0.0199,-0.0228,-0.0268,-0.0304,-0.033,-0.0363,-0.0408,-0.0447,-0.0476,-0.0525,-0.0536,-0.0555,-0.0562,-0.0554,-0.0552,-0.0573,-0.0573,-0.0576,-0.0575,-0.0575,-0.0575,0,0.0024,-0.001,-0.0062,-0.0115,-0.013,-0.0159,-0.0206,-0.0236,-0.0265,-0.031,-0.0322,-0.0369,-0.0417,-0.0456,-0.0519,-0.0538,-0.059,-0.0598,-0.0574,-0.0579,-0.0598,-0.0596,-0.0649,-0.0658,-0.0628,-0.0628,-0.0629,0,0.0006,-0.0022,-0.0079,-0.0103,-0.013,-0.017,-0.0198,-0.0234,-0.0263,-0.0317,-0.034,-0.0389,-0.0431,-0.0506,-0.0548,-0.0596,-0.0607,-0.0621,-0.0614,-0.0605,-0.061,-0.0608,-0.0612,-0.0623,-0.0623,-0.0623,-0.0623,0,-0.0023,-0.0038,-0.0078,-0.0123,-0.0156,-0.0194,-0.0233,-0.0252,-0.0295,-0.0326,-0.0374,-0.0406,-0.047,-0.0519,-0.0572,-0.0602,-0.0621,-0.0625,-0.0633,-0.0626,-0.0612,-0.0622,-0.0579,-0.0624,-0.0624,-0.0624,-0.0624,-0.0624,-0.004,-0.0067,-0.011,-0.0154,-0.0186,-0.0221,-0.0251,-0.0283,-0.0324,-0.0377,-0.0395,-0.0445,-0.0492,-0.0564,-0.0594,-0.0635,-0.0637,-0.0648,-0.0651,-0.0654,-0.0654,-0.0602,-0.0645,-0.0645,-0.0645,-0.0645,-0.0645,0,-0.0072,-0.0101,-0.014,-0.0193,-0.0227,-0.0238,-0.0281,-0.031,-0.0353,-0.0393,-0.0433,-0.0489,-0.0537,-0.058,-0.0631,-0.0655,-0.0665,-0.0668,-0.0668,-0.0675,-0.0648,-0.0637,-0.0659,-0.0659,-0.0659,-0.0659,-0.0659,-0.0659,-0.0094,-0.014,-0.016,-0.0224,-0.0253,-0.0301,-0.0325,-0.0358,-0.039,-0.0451,-0.049,-0.0517,-0.056,-0.0613,-0.0658,-0.067,-0.0688,-0.0689,-0.0703,-0.0678,-0.0676,-0.0675,-0.0665,-0.0692,-0.0692,-0.0727,-0.0727,-0.0728]},{"header":{"parameterUnit":"m.s-1","parameterCategory":1,"la1":30.2991,"la2":30.254,"lo1":-89.0895,"lo2":-89.0444,"dy":0.0017,"dx":0.0017,"nx":28,"ny":28,"refTime":"2024-10-20T09:00:00:Z","depth":0,"parameterNumber":3,"parameterNumberName":"V-component_of_WINDS"},"data":[0,0,0,0,0,0,0,0,0,0,0,0,0,0,0,0,0,0,0,0,0,0,0,0,0,0,0,0,0,0,0,0,0,0,0,0,0,0,0,0,0,0,0,0,0,0,0,0,0,0,0,0,0,0,0,0,0,0,-1.2725,-1.2726,0,-1.2867,-1.2869,-1.287,-1.2927,-1.2926,-1.2926,-1.2926,-1.307,-1.3075,-1.3079,0,0,0,0,0,0,0,0,0,0,0,0,0,-1.2501,-1.2505,-1.2725,-1.2726,-1.2728,-1.2867,-1.2869,-1.2871,-1.2927,-1.2926,-1.2926,-1.2926,-1.3069,-1.3074,-1.3079,0,0,0,0,0,0,0,0,0,0,0,0,0,-1.2616,-1.2506,-1.2724,-1.2773,-1.2779,-1.2867,-1.2869,-1.2871,-1.2927,-1.2926,-1.2926,-1.2925,-1.3067,-1.3074,-1.308,-1.313,0,0,-1.3099,-1.3102,0,0,0,0,0,0,0,0,-1.2609,-1.2624,-1.2764,-1.277,-1.2776,-1.2879,-1.2843,-1.2958,-1.2927,-1.2871,-1.2926,-1.2925,-1.3007,-1.3018,-1.3046,-1.3136,-1.3143,-1.31,-1.3103,-1.3106,-1.3108,0,0,0,0,0,0,0,-1.2601,-1.2618,-1.2781,-1.2766,-1.2774,-1.2787,-1.2803,-1.2865,-1.294,-1.2875,-1.288,-1.2896,-1.301,-1.304,-1.305,-1.3145,-1.3099,-1.3105,-1.3109,-1.3111,-1.3284,-1.3285,0,0,0,0,0,0,-1.2585,-1.2611,-1.2777,-1.2785,-1.269,-1.2792,-1.281,-1.2846,-1.294,-1.2953,-1.2896,-1.2898,-1.3029,-1.3043,-1.3055,-1.3121,-1.3106,-1.3112,-1.3116,-1.3283,-1.3284,-1.3285,0,0,0,0,0,0,-1.258,-1.26,-1.2771,-1.27,-1.2722,-1.2796,-1.2837,-1.2849,-1.2879,-1.2955,-1.2969,-1.2913,-1.303,-1.3046,-1.3111,-1.3127,-1.3115,-1.312,-1.3282,-1.3284,-1.3285,-1.3251,0,0,0,0,0,0,-1.2574,-1.2597,-1.2617,-1.27,-1.2726,-1.2824,-1.2838,-1.2853,-1.289,-1.2894,-1.2975,-1.2987,-1.303,-1.3101,-1.3117,-1.3135,-1.3125,-1.3281,-1.3283,-1.3284,-1.3251,-1.3251,-1.3251,0,0,0,0,0,-1.2565,-1.2602,-1.2618,-1.2637,-1.2752,-1.2825,-1.284,-1.2889,-1.2891,-1.2912,-1.2961,-1.2985,-1.3122,-1.3107,-1.3126,-1.3146,-1.3281,-1.3282,-1.3284,-1.3251,-1.3251,-1.3251,0,0,0,0,0,0,-1.2518,-1.2613,-1.2632,-1.2696,-1.2752,-1.2834,-1.2862,-1.2887,-1.2943,-1.2945,-1.3003,-1.302,-1.308,-1.312,-1.3102,-1.3199,-1.3203,-1.3209,-1.3172,-1.3172,-1.3172,-1.3162,-1.3131,0,0,0,0,0,-1.2515,-1.2567,-1.2647,-1.2695,-1.2723,-1.2787,-1.2821,-1.2854,-1.2914,-1.2938,-1.2991,-1.3049,-1.3105,-1.3141,-1.3196,-1.3257,-1.3276,-1.328,-1.328,-1.3279,-1.3283,-1.3319,-1.3322,-1.3291,-1.3291,-1.3291,0,0,-1.251,-1.2568,-1.2597,-1.2687,-1.2735,-1.2787,-1.2807,-1.286,-1.29,-1.2946,-1.3011,-1.3052,-1.312,-1.3183,-1.3213,-1.3217,-1.3296,-1.3281,-1.328,-1.3285,-1.3322,-1.3324,-1.3327,-1.3292,-1.3292,-1.3292,0,0,-1.2527,-1.2575,-1.2622,-1.2669,-1.2741,-1.2783,-1.2794,-1.2873,-1.2903,-1.2969,-1.3005,-1.3052,-1.3147,-1.3194,-1.3231,-1.3266,-1.329,-1.3282,-1.3282,-1.3316,-1.3319,-1.3321,-1.3335,-1.3339,-1.3286,-1.3286,-1.3286,0,-1.2511,-1.2591,-1.2642,-1.2695,-1.2734,-1.2779,-1.2826,-1.2869,-1.2955,-1.2981,-1.2984,-1.3105,-1.3154,-1.3229,-1.3238,-1.3266,-1.328,-1.3274,-1.3314,-1.3317,-1.332,-1.3334,-1.3338,-1.3285,-1.3285,-1.3285,-1.3285,0,-1.2568,-1.2623,-1.2652,-1.2734,-1.2777,-1.2826,-1.2886,-1.2922,-1.2951,-1.2994,-1.3061,-1.3121,-1.319,-1.321,-1.3239,-1.329,-1.329,-1.3303,-1.3308,-1.3321,-1.3335,-1.334,-1.3283,-1.3283,-1.3284,-1.3284,0,0,-1.2559,-1.267,-1.268,-1.2719,-1.2801,-1.2844,-1.2896,-1.2964,-1.2995,-1.3052,-1.3098,-1.3178,-1.319,-1.3232,-1.3266,-1.3296,-1.3321,-1.3306,-1.3308,-1.3307,-1.3382,-1.3373,-1.3378,-1.3338,-1.3339,-1.334,-1.3377,0,-1.2588,-1.2683,-1.2731,-1.2806,-1.2857,-1.2901,-1.2946,-1.3001,-1.3042,-1.3092,-1.3137,-1.3194,-1.3205,-1.3231,-1.3262,-1.3311,-1.3337,-1.3309,-1.3381,-1.3383,-1.3364,-1.3385,-1.3375,-1.3407,-1.3382,-1.3383,-1.3384,0,-1.2634,-1.2692,-1.2771,-1.2849,-1.2872,-1.2912,-1.2979,-1.3026,-1.309,-1.3118,-1.3164,-1.3198,-1.3254,-1.3255,-1.3333,-1.3313,-1.3345,-1.3374,-1.3376,-1.3386,-1.3385,-1.3395,-1.3418,-1.3423,-1.3393,-1.3392,-1.3391,0,-1.2621,-1.2719,-1.2779,-1.2811,-1.2902,-1.2929,-1.2968,-1.3032,-1.307,-1.3128,-1.3154,-1.3217,-1.3252,-1.3301,-1.3351,-1.3347,-1.3425,-1.343,-1.3451,-1.3449,-1.3466,-1.3464,-1.3495,-1.3485,-1.3485,-1.3484,-1.3484,0,-1.2648,-1.2695,-1.2775,-1.2812,-1.2867,-1.2922,-1.2974,-1.3016,-1.3072,-1.3119,-1.316,-1.3202,-1.3266,-1.3316,-1.3356,-1.3416,-1.3431,-1.3455,-1.3465,-1.3452,-1.3449,-1.3475,-1.3474,-1.3486,-1.3486,-1.3485,-1.3485,0,-1.2643,-1.2698,-1.2767,-1.2848,-1.287,-1.2906,-1.2976,-1.3014,-1.3057,-1.3115,-1.3132,-1.32,-1.3261,-1.3316,-1.3398,-1.3425,-1.3486,-1.3498,-1.3465,-1.347,-1.3488,-1.3486,-1.3537,-1.3547,-1.3529,-1.3529,-1.3529,0,-1.2657,-1.2695,-1.278,-1.2814,-1.2853,-1.2907,-1.2947,-1.3002,-1.3042,-1.3118,-1.3147,-1.3212,-1.3267,-1.3363,-1.342,-1.3483,-1.3497,-1.351,-1.3507,-1.3493,-1.3498,-1.3496,-1.35,-1.351,-1.351,-1.351,-1.351,0,-1.2677,-1.2703,-1.2758,-1.2823,-1.2869,-1.2923,-1.2978,-1.3004,-1.307,-1.3112,-1.3176,-1.3219,-1.3303,-1.3367,-1.3436,-1.3476,-1.3504,-1.3511,-1.3519,-1.3506,-1.3486,-1.3498,-1.3465,-1.3509,-1.351,-1.351,-1.351,-1.351,-1.2683,-1.2719,-1.2784,-1.2845,-1.2893,-1.2943,-1.2983,-1.3032,-1.3086,-1.3159,-1.3188,-1.3254,-1.3317,-1.3413,-1.3454,-1.3506,-1.3511,-1.3522,-1.3526,-1.3528,-1.3526,-1.3477,-1.3518,-1.3518,-1.3518,-1.3519,-1.3519,0,-1.2706,-1.275,-1.2805,-1.2882,-1.293,-1.2952,-1.3014,-1.3053,-1.311,-1.3167,-1.322,-1.3294,-1.3357,-1.3418,-1.3484,-1.3514,-1.3528,-1.3529,-1.3528,-1.3537,-1.3517,-1.3504,-1.3517,-1.3517,-1.3517,-1.3517,-1.3517,-1.3517,-1.2723,-1.2785,-1.2819,-1.2905,-1.2949,-1.3014,-1.3048,-1.3095,-1.3141,-1.3222,-1.3274,-1.3314,-1.3373,-1.3443,-1.3502,-1.3518,-1.3541,-1.3539,-1.3559,-1.3539,-1.3538,-1.3538,-1.3526,-1.3543,-1.3543,-1.3575,-1.3575,-1.3575]}]]